Orbital Elements at Epoch 2459200.5 (2020-Dec-17.0) TDB
Reference: JPL 31 (heliocentric ecliptic J2000)
Element | Value | Uncertainty (1-sigma) | Units |
e | .1450694677663917 | 3.4823e-08 | |
a | 2.286424984775507 | 7.9594e-09 | au |
q | 1.954734529146344 | 8.2061e-08 | au |
i | 6.788885619286525 | 3.916e-06 | deg |
node | 257.5519697509492 | 3.205e-05 | deg |
peri | 25.5694459649705 | 3.5471e-05 | deg |
M | 345.6945708138148 | 1.7158e-05 | deg |
tp | 2459250.680184500955 (2021-Feb-05.18018450) | 6.0309e-05 | TDB |
period | 1262.797933933291 3.46 | 6.594e-06 1.805e-08 | d yr |
n | .2850812393069829 | 1.4886e-09 | deg/d |
Q | 2.61811544040467 | 9.1141e-09 | au |
|
| | Orbit Determination Parameters
Additional Information
|